Time,TemperatureF,DewpointF,PressureIn,WindDirection,WindDirectionDegrees,WindSpeedMPH,WindSpeedGustMPH,Humidity,HourlyPrecipIn,Conditions,Clouds,dailyrainin,SoftwareType,DateUTC
2013-05-29 00:12:00,49.6,47.0,29.50,NNW,347,6.0,9.0,91,0.07,,,0.08,weatherlink.com 1.10,2013-05-28 23:12:00,
2013-05-29 00:27:00,49.5,47.0,29.51,NNW,348,6.0,8.0,91,0.07,,,0.09,weatherlink.com 1.10,2013-05-28 23:27:00,
2013-05-29 00:42:00,49.4,47.0,29.51,North,10,3.0,10.0,92,0.07,,,0.11,weatherlink.com 1.10,2013-05-28 23:42:00,
2013-05-29 00:57:00,49.3,47.0,29.52,North,6,7.0,10.0,92,0.07,,,0.15,weatherlink.com 1.10,2013-05-28 23:57:00,
2013-05-29 01:12:00,49.1,47.0,29.51,NNE,18,6.0,14.0,92,0.13,,,0.21,weatherlink.com 1.10,2013-05-29 00:12:00,
2013-05-29 01:27:00,49.1,47.0,29.51,WNW,295,1.0,8.0,93,0.16,,,0.25,weatherlink.com 1.10,2013-05-29 00:27:00,
2013-05-29 01:42:00,49.2,47.0,29.52,NE,35,6.0,10.0,93,0.15,,,0.27,weatherlink.com 1.10,2013-05-29 00:42:00,
2013-05-29 01:57:00,49.4,48.0,29.52,NE,43,6.0,12.0,94,0.14,,,0.29,weatherlink.com 1.10,2013-05-29 00:57:00,
2013-05-29 02:12:00,49.5,48.0,29.52,NNE,22,6.0,8.0,94,0.09,,,0.30,weatherlink.com 1.10,2013-05-29 01:12:00,
2013-05-29 02:28:00,49.7,48.0,29.52,ENE,68,5.0,10.0,94,0.06,,,0.31,weatherlink.com 1.10,2013-05-29 01:28:00,
2013-05-29 02:43:00,49.9,48.0,29.52,North,8,5.0,13.0,94,0.05,,,0.02,weatherlink.com 1.10,2013-05-29 01:43:00,
2013-05-29 02:58:00,49.6,48.0,29.52,NE,53,5.0,15.0,93,0.06,,,0.05,weatherlink.com 1.10,2013-05-29 01:58:00,
2013-05-29 03:13:00,49.6,48.0,29.53,NNE,30,5.0,10.0,93,0.08,,,0.07,weatherlink.com 1.10,2013-05-29 02:13:00,
2013-05-29 03:28:00,49.5,48.0,29.53,NE,44,4.0,7.0,93,0.08,,,0.08,weatherlink.com 1.10,2013-05-29 02:28:00,
2013-05-29 03:43:00,49.4,48.0,29.54,NE,39,3.0,10.0,93,0.08,,,0.09,weatherlink.com 1.10,2013-05-29 02:43:00,
2013-05-29 03:58:00,49.3,47.0,29.54,North,1,6.0,6.0,92,0.05,,,0.10,weatherlink.com 1.10,2013-05-29 02:58:00,
2013-05-29 04:13:00,49.2,47.0,29.54,North,10,4.0,6.0,92,0.03,,,0.10,weatherlink.com 1.10,2013-05-29 03:13:00,
2013-05-29 04:28:00,49.3,47.0,29.54,NNE,30,2.0,6.0,92,0.03,,,0.11,weatherlink.com 1.10,2013-05-29 03:28:00,
2013-05-29 04:43:00,49.2,47.0,29.55,North,356,2.0,6.0,91,0.02,,,0.11,weatherlink.com 1.10,2013-05-29 03:43:00,
2013-05-29 04:58:00,49.2,47.0,29.55,NNE,19,3.0,7.0,90,0.01,,,0.11,weatherlink.com 1.10,2013-05-29 03:58:00,
2013-05-29 05:13:00,49.3,46.0,29.55,North,9,3.0,7.0,89,0.01,,,0.11,weatherlink.com 1.10,2013-05-29 04:13:00,
2013-05-29 05:28:00,49.1,46.0,29.56,NE,35,8.0,8.0,89,0.00,,,0.11,weatherlink.com 1.10,2013-05-29 04:28:00,
2013-05-29 05:43:00,49.1,46.0,29.56,NW,314,0.0,7.0,88,0.00,,,0.11,weatherlink.com 1.10,2013-05-29 04:43:00,
2013-05-29 05:58:00,49.1,45.0,29.57,NNE,22,2.0,8.0,87,0.00,,,0.11,weatherlink.com 1.10,2013-05-29 04:58:00,
2013-05-29 06:13:00,49.0,45.0,29.58,East,100,5.0,11.0,86,0.00,,,0.11,weatherlink.com 1.10,2013-05-29 05:13:00,
2013-05-29 06:28:00,48.9,45.0,29.59,NNW,329,1.0,6.0,86,0.00,,,0.11,weatherlink.com 1.10,2013-05-29 05:28:00,
2013-05-29 06:43:00,49.0,44.0,29.59,NNE,29,9.0,12.0,84,0.00,,,0.11,weatherlink.com 1.10,2013-05-29 05:43:00,
2013-05-29 06:58:00,49.1,44.0,29.60,East,86,4.0,8.0,83,0.00,,,0.11,weatherlink.com 1.10,2013-05-29 05:58:00,
2013-05-29 07:13:00,49.3,44.0,29.60,NNE,27,8.0,9.0,82,0.00,,,0.11,weatherlink.com 1.10,2013-05-29 06:13:00,
2013-05-29 07:28:00,49.8,44.0,29.61,ENE,75,9.0,10.0,80,0.00,,,0.11,weatherlink.com 1.10,2013-05-29 06:28:00,
2013-05-29 07:43:00,50.3,44.0,29.62,ENE,61,2.0,11.0,79,0.00,,,0.11,weatherlink.com 1.10,2013-05-29 06:43:00,
2013-05-29 07:58:00,50.8,45.0,29.62,SSW,198,2.0,9.0,79,0.00,,,0.11,weatherlink.com 1.10,2013-05-29 06:58:00,
2013-05-29 08:13:00,51.6,45.0,29.63,ENE,61,3.0,12.0,77,0.00,,,0.11,weatherlink.com 1.10,2013-05-29 07:13:00,
2013-05-29 08:29:00,52.3,45.0,29.64,North,7,9.0,16.0,76,0.00,,,0.11,weatherlink.com 1.10,2013-05-29 07:29:00,
2013-05-29 08:44:00,52.0,45.0,29.64,ENE,66,6.0,14.0,77,0.00,,,0.11,weatherlink.com 1.10,2013-05-29 07:44:00,
2013-05-29 08:59:00,52.6,46.0,29.65,NE,39,5.0,14.0,77,0.00,,,0.11,weatherlink.com 1.10,2013-05-29 07:59:00,
2013-05-29 09:14:00,52.8,46.0,29.65,NNE,18,3.0,12.0,77,0.00,,,0.11,weatherlink.com 1.10,2013-05-29 08:14:00,
2013-05-29 09:29:00,52.7,46.0,29.65,East,88,6.0,13.0,78,0.00,,,0.11,weatherlink.com 1.10,2013-05-29 08:29:00,
2013-05-29 09:44:00,53.0,47.0,29.66,ENE,78,9.0,13.0,79,0.00,,,0.11,weatherlink.com 1.10,2013-05-29 08:44:00,
2013-05-29 09:59:00,53.5,46.0,29.66,ENE,59,6.0,11.0,77,0.00,,,0.11,weatherlink.com 1.10,2013-05-29 08:59:00,
2013-05-29 10:14:00,54.8,47.0,29.66,NNE,29,10.0,12.0,76,0.00,,,0.11,weatherlink.com 1.10,2013-05-29 09:14:00,
2013-05-29 10:29:00,55.1,47.0,29.67,East,98,6.0,12.0,75,0.00,,,0.11,weatherlink.com 1.10,2013-05-29 09:29:00,
2013-05-29 10:44:00,55.1,47.0,29.68,ENE,67,5.0,11.0,75,0.00,,,0.11,weatherlink.com 1.10,2013-05-29 09:44:00,
2013-05-29 10:59:00,55.4,48.0,29.68,NE,44,7.0,12.0,75,0.00,,,0.11,weatherlink.com 1.10,2013-05-29 09:59:00,
2013-05-29 11:14:00,56.3,48.0,29.68,NE,44,8.0,11.0,75,0.00,,,0.11,weatherlink.com 1.10,2013-05-29 10:14:00,
2013-05-29 11:29:00,56.6,48.0,29.68,ENE,63,4.0,9.0,73,0.00,,,0.11,weatherlink.com 1.10,2013-05-29 10:29:00,
2013-05-29 11:44:00,57.5,48.0,29.69,ENE,73,5.0,8.0,71,0.00,,,0.11,weatherlink.com 1.10,2013-05-29 10:44:00,
2013-05-29 11:59:00,58.1,48.0,29.69,ESE,117,5.0,9.0,70,0.00,,,0.11,weatherlink.com 1.10,2013-05-29 10:59:00,
2013-05-29 12:14:00,58.5,49.0,29.69,ESE,108,4.0,9.0,70,0.00,,,0.11,weatherlink.com 1.10,2013-05-29 11:14:00,
2013-05-29 12:29:00,59.9,49.0,29.70,NE,42,4.0,13.0,68,0.00,,,0.11,weatherlink.com 1.10,2013-05-29 11:29:00,
2013-05-29 12:44:00,60.3,49.0,29.70,NNE,27,4.0,10.0,67,0.00,,,0.11,weatherlink.com 1.10,2013-05-29 11:44:00,
2013-05-29 12:59:00,60.3,49.0,29.71,ENE,73,8.0,12.0,67,0.00,,,0.11,weatherlink.com 1.10,2013-05-29 11:59:00,
2013-05-29 13:14:00,60.8,50.0,29.71,NE,56,6.0,9.0,68,0.00,,,0.11,weatherlink.com 1.10,2013-05-29 12:14:00,
2013-05-29 13:29:00,60.8,49.0,29.72,NNE,32,6.0,14.0,65,0.00,,,0.11,weatherlink.com 1.10,2013-05-29 12:29:00,
2013-05-29 13:44:00,61.2,50.0,29.72,NE,54,9.0,12.0,66,0.00,,,0.11,weatherlink.com 1.10,2013-05-29 12:44:00,
2013-05-29 13:59:00,60.7,50.0,29.72,NNE,22,6.0,13.0,67,0.00,,,0.11,weatherlink.com 1.10,2013-05-29 12:59:00,
2013-05-29 14:14:00,61.2,50.0,29.73,ENE,76,4.0,10.0,67,0.00,,,0.11,weatherlink.com 1.10,2013-05-29 13:14:00,
2013-05-29 14:29:00,62.0,50.0,29.72,North,8,8.0,8.0,65,0.00,,,0.11,weatherlink.com 1.10,2013-05-29 13:29:00,
2013-05-29 14:44:00,62.7,49.0,29.72,NNE,25,6.0,11.0,61,0.00,,,0.11,weatherlink.com 1.10,2013-05-29 13:44:00,
2013-05-29 15:00:00,63.9,49.0,29.73,NNE,32,6.0,13.0,58,0.00,,,0.11,weatherlink.com 1.10,2013-05-29 14:00:00,
2013-05-29 15:15:00,64.7,48.0,29.73,NNE,32,7.0,11.0,56,0.00,,,0.11,weatherlink.com 1.10,2013-05-29 14:15:00,
2013-05-29 15:30:00,65.0,50.0,29.73,NNE,26,4.0,15.0,59,0.00,,,0.11,weatherlink.com 1.10,2013-05-29 14:30:00,
2013-05-29 15:45:00,65.5,51.0,29.73,NNW,338,3.0,13.0,60,0.00,,,0.11,weatherlink.com 1.10,2013-05-29 14:45:00,
2013-05-29 16:00:00,65.0,50.0,29.73,North,10,8.0,10.0,59,0.00,,,0.11,weatherlink.com 1.10,2013-05-29 15:00:00,
2013-05-29 16:15:00,65.9,51.0,29.73,NE,40,7.0,11.0,59,0.00,,,0.11,weatherlink.com 1.10,2013-05-29 15:15:00,
2013-05-29 16:30:00,65.5,50.0,29.73,NNW,338,2.0,11.0,58,0.00,,,0.11,weatherlink.com 1.10,2013-05-29 15:30:00,
2013-05-29 16:45:00,65.8,50.0,29.73,NNW,345,4.0,11.0,57,0.00,,,0.11,weatherlink.com 1.10,2013-05-29 15:45:00,
2013-05-29 17:00:00,64.9,51.0,29.73,NE,37,8.0,15.0,60,0.00,,,0.11,weatherlink.com 1.10,2013-05-29 16:00:00,
2013-05-29 17:15:00,65.1,51.0,29.73,NNE,14,7.0,13.0,61,0.00,,,0.11,weatherlink.com 1.10,2013-05-29 16:15:00,
2013-05-29 17:30:00,65.8,51.0,29.73,NNE,23,5.0,10.0,60,0.00,,,0.11,weatherlink.com 1.10,2013-05-29 16:30:00,
2013-05-29 17:45:00,66.0,51.0,29.74,NE,42,9.0,11.0,58,0.00,,,0.11,weatherlink.com 1.10,2013-05-29 16:45:00,
2013-05-29 18:00:00,65.9,50.0,29.74,NNW,348,4.0,13.0,57,0.00,,,0.11,weatherlink.com 1.10,2013-05-29 17:00:00,
2013-05-29 18:15:00,66.2,50.0,29.74,NE,36,11.0,13.0,56,0.00,,,0.11,weatherlink.com 1.10,2013-05-29 17:15:00,
2013-05-29 18:30:00,66.9,50.0,29.74,NE,41,9.0,14.0,55,0.00,,,0.11,weatherlink.com 1.10,2013-05-29 17:30:00,
2013-05-29 18:45:00,67.4,50.0,29.74,NNE,25,10.0,13.0,54,0.00,,,0.11,weatherlink.com 1.10,2013-05-29 17:45:00,
2013-05-29 19:00:00,66.6,49.0,29.75,NNE,12,3.0,12.0,54,0.00,,,0.11,weatherlink.com 1.10,2013-05-29 18:00:00,
2013-05-29 19:15:00,67.2,50.0,29.75,ENE,67,14.0,17.0,54,0.00,,,0.11,weatherlink.com 1.10,2013-05-29 18:15:00,
2013-05-29 19:30:00,66.9,49.0,29.76,East,86,8.0,14.0,53,0.00,,,0.11,weatherlink.com 1.10,2013-05-29 18:30:00,
2013-05-29 19:45:00,66.9,49.0,29.76,North,352,6.0,10.0,52,0.00,,,0.11,weatherlink.com 1.10,2013-05-29 18:45:00,
2013-05-29 20:00:00,66.1,48.0,29.77,NNE,16,7.0,13.0,52,0.00,,,0.11,weatherlink.com 1.10,2013-05-29 19:00:00,
2013-05-29 20:15:00,65.1,46.0,29.77,NNE,22,8.0,14.0,51,0.00,,,0.11,weatherlink.com 1.10,2013-05-29 19:15:00,
2013-05-29 20:30:00,64.5,46.0,29.78,North,7,12.0,17.0,52,0.00,,,0.11,weatherlink.com 1.10,2013-05-29 19:30:00,
2013-05-29 20:45:00,64.3,47.0,29.78,NNE,25,4.0,11.0,53,0.00,,,0.11,weatherlink.com 1.10,2013-05-29 19:45:00,
2013-05-29 21:00:00,63.9,46.0,29.79,NW,326,4.0,10.0,53,0.00,,,0.11,weatherlink.com 1.10,2013-05-29 20:00:00,
2013-05-29 21:15:00,63.3,46.0,29.80,North,5,2.0,10.0,54,0.00,,,0.11,weatherlink.com 1.10,2013-05-29 20:15:00,
2013-05-29 21:30:00,63.0,46.0,29.80,North,360,2.0,10.0,54,0.00,,,0.11,weatherlink.com 1.10,2013-05-29 20:30:00,
2013-05-29 21:45:00,62.5,46.0,29.80,SE,139,2.0,9.0,55,0.00,,,0.11,weatherlink.com 1.10,2013-05-29 20:45:00,
2013-05-29 22:00:00,61.8,45.0,29.81,NNW,333,3.0,8.0,55,0.00,,,0.11,weatherlink.com 1.10,2013-05-29 21:00:00,
2013-05-29 22:15:00,61.0,45.0,29.81,NNW,344,1.0,10.0,55,0.00,,,0.11,weatherlink.com 1.10,2013-05-29 21:15:00,
2013-05-29 22:30:00,60.2,46.0,29.81,SW,219,1.0,5.0,59,0.00,,,0.11,weatherlink.com 1.10,2013-05-29 21:30:00,
2013-05-29 22:45:00,59.4,46.0,29.82,NNW,337,3.0,6.0,61,0.00,,,0.11,weatherlink.com 1.10,2013-05-29 21:45:00,
2013-05-29 23:00:00,58.8,45.0,29.82,WSW,252,4.0,6.0,60,0.00,,,0.11,weatherlink.com 1.10,2013-05-29 22:00:00,
2013-05-29 23:15:00,58.3,46.0,29.82,WSW,257,2.0,5.0,64,0.00,,,0.11,weatherlink.com 1.10,2013-05-29 22:15:00,
2013-05-29 23:30:00,57.8,46.0,29.82,NW,305,2.0,6.0,65,0.00,,,0.11,weatherlink.com 1.10,2013-05-29 22:30:00,
2013-05-29 23:45:00,57.4,46.0,29.83,WSW,244,1.0,4.0,67,0.00,,,0.11,weatherlink.com 1.10,2013-05-29 22:45:00,